Year,Month,Day,Hour,Minute,Value (Times are PST for temperature in C)
2012,08,05,00,02,23.10
2012,08,05,00,03,23.10
2012,08,05,00,04,23.10
2012,08,05,00,05,23.10
2012,08,05,00,06,23.10
2012,08,05,00,07,23.00
2012,08,05,00,08,23.00
2012,08,05,00,09,23.00
2012,08,05,00,10,23.00
2012,08,05,00,11,23.10
2012,08,05,00,12,23.00
2012,08,05,00,13,23.00
2012,08,05,00,14,23.00
2012,08,05,00,15,23.00
2012,08,05,00,16,22.90
2012,08,05,00,17,22.90
2012,08,05,00,18,23.00
2012,08,05,00,19,22.90
2012,08,05,00,20,22.90
2012,08,05,00,21,22.90
2012,08,05,00,22,22.90
2012,08,05,00,23,22.90
2012,08,05,00,24,22.90
2012,08,05,00,25,22.90
2012,08,05,00,26,23.00
2012,08,05,00,27,23.00
2012,08,05,00,28,23.00
2012,08,05,00,29,23.00
2012,08,05,00,30,22.90
2012,08,05,00,31,22.90
2012,08,05,00,32,23.00
2012,08,05,00,33,23.00
2012,08,05,00,34,23.00
2012,08,05,00,35,22.90
2012,08,05,00,36,22.90
2012,08,05,00,37,22.90
2012,08,05,00,38,22.90
2012,08,05,00,39,22.90
2012,08,05,00,40,22.80
2012,08,05,00,42,22.80
2012,08,05,00,43,22.80
2012,08,05,00,44,22.70
2012,08,05,00,46,22.70
2012,08,05,00,47,22.70
2012,08,05,00,48,22.60
2012,08,05,00,49,22.60
2012,08,05,00,50,22.60
2012,08,05,00,51,22.50
2012,08,05,00,52,22.40
2012,08,05,00,53,22.40
2012,08,05,00,54,22.30
2012,08,05,00,55,22.30
2012,08,05,00,56,22.30
2012,08,05,00,57,22.20
2012,08,05,00,58,22.20
2012,08,05,00,59,22.20
2012,08,05,01,00,22.20
2012,08,05,01,01,22.20
2012,08,05,01,02,22.20
2012,08,05,01,03,22.20
2012,08,05,01,04,22.20
2012,08,05,01,05,22.20
2012,08,05,01,06,22.30
2012,08,05,01,07,22.30
2012,08,05,01,08,22.30
2012,08,05,01,09,22.40
2012,08,05,01,10,22.40
2012,08,05,01,11,22.30
2012,08,05,01,12,22.30
2012,08,05,01,13,22.30
2012,08,05,01,14,22.20
2012,08,05,01,15,22.20
2012,08,05,01,16,22.10
2012,08,05,01,17,22.00
2012,08,05,01,18,21.90
2012,08,05,01,19,21.70
2012,08,05,01,20,21.70
2012,08,05,01,21,21.60
2012,08,05,01,22,21.40
2012,08,05,01,23,21.30
2012,08,05,01,24,21.20
2012,08,05,01,26,21.20
2012,08,05,01,27,21.10
2012,08,05,01,28,21.00
2012,08,05,01,29,20.90
2012,08,05,01,31,20.90
2012,08,05,01,32,20.80
2012,08,05,01,33,20.70
2012,08,05,01,35,20.60
2012,08,05,01,36,20.50
2012,08,05,01,37,20.30
2012,08,05,01,38,20.20
2012,08,05,01,39,20.10
2012,08,05,01,40,20.10
2012,08,05,01,41,19.90
2012,08,05,01,42,19.90
2012,08,05,01,43,19.80
2012,08,05,01,45,19.70
2012,08,05,01,46,19.70
2012,08,05,01,47,19.60
2012,08,05,01,48,19.60
2012,08,05,01,49,19.50
2012,08,05,01,50,19.50
2012,08,05,01,52,19.40
2012,08,05,01,53,19.40
2012,08,05,01,54,19.40
2012,08,05,01,55,19.40
2012,08,05,01,56,19.40
2012,08,05,01,57,19.40
2012,08,05,01,58,19.40
2012,08,05,01,59,19.40
2012,08,05,02,00,19.50
2012,08,05,02,02,19.60
2012,08,05,02,03,19.60
2012,08,05,02,04,19.60
2012,08,05,02,05,19.70
2012,08,05,02,06,19.70
2012,08,05,02,08,19.70
2012,08,05,02,09,19.80
2012,08,05,02,10,19.80
2012,08,05,02,11,19.80
2012,08,05,02,12,19.80
2012,08,05,02,13,19.80
2012,08,05,02,14,19.80
2012,08,05,02,15,19.70
2012,08,05,02,17,19.70
2012,08,05,02,18,19.70
2012,08,05,02,19,19.70
2012,08,05,02,20,19.70
2012,08,05,02,21,19.70
2012,08,05,02,23,19.70
2012,08,05,02,24,19.70
2012,08,05,02,25,19.70
2012,08,05,02,26,19.60
2012,08,05,02,27,19.60
2012,08,05,02,29,19.60
2012,08,05,02,30,19.60
2012,08,05,02,31,19.60
2012,08,05,02,33,19.60
2012,08,05,02,34,19.50
2012,08,05,02,35,19.50
2012,08,05,02,36,19.50
2012,08,05,02,38,19.40
2012,08,05,02,39,19.40
2012,08,05,02,40,19.40
2012,08,05,02,41,19.40
2012,08,05,02,43,19.30
2012,08,05,02,44,19.30
2012,08,05,02,45,19.30
2012,08,05,02,46,19.20
2012,08,05,02,47,19.20
2012,08,05,02,48,19.20
2012,08,05,02,49,19.20
2012,08,05,02,50,19.20
2012,08,05,02,51,19.20
2012,08,05,02,52,19.20
2012,08,05,02,53,19.10
2012,08,05,02,54,19.10
2012,08,05,02,55,19.10
2012,08,05,02,57,19.10
2012,08,05,02,58,19.10
2012,08,05,02,59,19.00
2012,08,05,03,00,19.00
2012,08,05,03,01,19.00
2012,08,05,03,02,19.00
2012,08,05,03,03,18.90
2012,08,05,03,04,18.90
2012,08,05,03,05,18.90
2012,08,05,03,07,18.90
2012,08,05,03,08,18.90
2012,08,05,03,09,18.90
2012,08,05,03,10,18.90
2012,08,05,03,11,18.90
2012,08,05,03,12,18.90
2012,08,05,03,13,19.00
2012,08,05,03,14,19.00
2012,08,05,03,16,19.00
2012,08,05,03,17,19.10
2012,08,05,03,18,19.10
2012,08,05,03,19,19.10
2012,08,05,03,20,19.10
2012,08,05,03,21,19.10
2012,08,05,03,22,19.20
2012,08,05,03,23,19.20
2012,08,05,03,24,19.20
2012,08,05,03,25,19.20
2012,08,05,03,26,19.20
2012,08,05,03,27,19.20
2012,08,05,03,28,19.10
2012,08,05,03,29,19.10
2012,08,05,03,30,19.10
2012,08,05,03,31,19.00
2012,08,05,03,32,19.00
2012,08,05,03,33,19.00
2012,08,05,03,34,18.90
2012,08,05,03,35,18.80
2012,08,05,03,37,18.80
2012,08,05,03,38,18.80
2012,08,05,03,39,18.70
2012,08,05,03,40,18.70
2012,08,05,03,42,18.70
2012,08,05,03,43,18.60
2012,08,05,03,44,18.60
2012,08,05,03,45,18.60
2012,08,05,03,47,18.60
2012,08,05,03,48,18.60
2012,08,05,03,49,18.60
2012,08,05,03,50,18.50
2012,08,05,03,51,18.50
2012,08,05,03,52,18.50
2012,08,05,03,53,18.40
2012,08,05,03,54,18.40
2012,08,05,03,55,18.40
2012,08,05,03,56,18.40
2012,08,05,03,57,18.40
2012,08,05,03,58,18.40
2012,08,05,03,59,18.30
2012,08,05,04,00,18.30
2012,08,05,04,01,18.30
2012,08,05,04,02,18.30
2012,08,05,04,03,18.30
2012,08,05,04,04,18.30
2012,08,05,04,06,18.30
2012,08,05,04,07,18.30
2012,08,05,04,08,18.30
2012,08,05,04,09,18.30
2012,08,05,04,10,18.30
2012,08,05,04,11,18.30
2012,08,05,04,12,18.20
2012,08,05,04,13,18.20
2012,08,05,04,15,18.10
2012,08,05,04,16,18.10
2012,08,05,04,17,18.00
2012,08,05,04,19,18.00
2012,08,05,04,20,17.90
2012,08,05,04,21,17.90
2012,08,05,04,22,17.90
2012,08,05,04,24,17.90
2012,08,05,04,25,17.90
2012,08,05,04,26,18.10
2012,08,05,04,27,18.20
2012,08,05,04,29,18.30
2012,08,05,04,30,18.70
2012,08,05,04,31,18.90
2012,08,05,04,32,19.20
2012,08,05,04,34,19.30
2012,08,05,04,35,19.70
2012,08,05,04,36,19.80
2012,08,05,04,37,20.00
2012,08,05,04,38,20.10
2012,08,05,04,39,20.20
2012,08,05,04,40,20.30
2012,08,05,04,41,20.40
2012,08,05,04,42,20.40
2012,08,05,04,43,20.30
2012,08,05,04,44,20.20
2012,08,05,04,45,20.10
2012,08,05,04,46,19.90
2012,08,05,04,47,19.80
2012,08,05,04,48,19.70
2012,08,05,04,49,19.40
2012,08,05,04,50,19.30
2012,08,05,04,52,19.20
2012,08,05,04,53,18.90
2012,08,05,04,54,18.80
2012,08,05,04,55,18.60
2012,08,05,04,56,18.50
2012,08,05,04,57,18.40
2012,08,05,04,58,18.30
2012,08,05,04,59,18.30
2012,08,05,05,00,18.20
2012,08,05,05,01,18.10
2012,08,05,05,02,18.10
2012,08,05,05,03,18.10
2012,08,05,05,04,17.90
2012,08,05,05,05,17.90
2012,08,05,05,06,17.80
2012,08,05,05,07,17.80
2012,08,05,05,08,17.80
2012,08,05,05,09,17.70
2012,08,05,05,10,17.60
2012,08,05,05,11,17.60
2012,08,05,05,12,17.50
2012,08,05,05,13,17.40
2012,08,05,05,14,17.30
2012,08,05,05,15,17.30
2012,08,05,05,16,17.30
2012,08,05,05,17,17.20
2012,08,05,05,18,17.20
2012,08,05,05,19,17.20
2012,08,05,05,20,17.20
2012,08,05,05,21,17.20
2012,08,05,05,22,17.10
2012,08,05,05,23,17.10
2012,08,05,05,25,17.10
2012,08,05,05,26,17.10
2012,08,05,05,27,17.10
2012,08,05,05,28,17.00
2012,08,05,05,29,17.00
2012,08,05,05,30,17.00
2012,08,05,05,32,16.90
2012,08,05,05,33,16.90
2012,08,05,05,34,16.80
2012,08,05,05,35,16.80
2012,08,05,05,36,16.80
2012,08,05,05,37,16.80
2012,08,05,05,38,16.80
2012,08,05,05,40,16.90
2012,08,05,05,41,16.90
2012,08,05,05,42,17.00
2012,08,05,05,43,17.10
2012,08,05,05,45,17.20
2012,08,05,05,46,17.30
2012,08,05,05,47,17.30
2012,08,05,05,48,17.40
2012,08,05,05,49,17.40
2012,08,05,05,51,17.40
2012,08,05,05,52,17.40
2012,08,05,05,53,17.40
2012,08,05,05,54,17.40
2012,08,05,05,56,17.30
2012,08,05,05,57,17.30
2012,08,05,05,58,17.30
2012,08,05,06,00,17.30
2012,08,05,06,01,17.30
2012,08,05,06,02,17.20
2012,08,05,06,03,17.20
2012,08,05,06,04,17.20
2012,08,05,06,06,17.10
2012,08,05,06,07,17.10
2012,08,05,06,08,17.10
2012,08,05,06,10,17.10
2012,08,05,06,11,17.00
2012,08,05,06,12,17.00
2012,08,05,06,13,17.00
2012,08,05,06,15,16.90
2012,08,05,06,16,16.90
2012,08,05,06,17,16.90
2012,08,05,06,18,16.90
2012,08,05,06,20,16.90
2012,08,05,06,21,16.90
2012,08,05,06,22,16.80
2012,08,05,06,23,16.80
2012,08,05,06,25,16.80
2012,08,05,06,26,16.80
2012,08,05,06,27,16.80
2012,08,05,06,28,16.80
2012,08,05,06,30,16.80
2012,08,05,06,31,16.80
2012,08,05,06,32,16.90
2012,08,05,06,33,16.90
2012,08,05,06,35,16.90
2012,08,05,06,36,16.90
2012,08,05,06,37,16.90
2012,08,05,06,38,16.90
2012,08,05,06,40,16.90
2012,08,05,06,41,17.00
2012,08,05,06,42,17.00
2012,08,05,06,43,17.00
2012,08,05,06,45,17.00
2012,08,05,06,46,17.00
2012,08,05,06,47,17.10
2012,08,05,06,48,17.10
2012,08,05,06,50,17.10
2012,08,05,06,51,17.10
2012,08,05,06,52,17.10
2012,08,05,06,53,17.10
2012,08,05,06,54,17.10
2012,08,05,06,55,17.10
2012,08,05,06,56,17.10
2012,08,05,06,57,17.20
2012,08,05,06,58,17.20
2012,08,05,06,59,17.20
2012,08,05,07,00,17.30
2012,08,05,07,01,17.30
2012,08,05,07,03,17.40
2012,08,05,07,04,17.60
2012,08,05,07,05,17.70
2012,08,05,07,06,17.80
2012,08,05,07,08,17.90
2012,08,05,07,09,18.00
2012,08,05,07,10,18.10
2012,08,05,07,11,18.20
2012,08,05,07,12,18.30
2012,08,05,07,14,18.40
2012,08,05,07,15,18.50
2012,08,05,07,16,18.60
2012,08,05,07,17,18.70
2012,08,05,07,19,18.80
2012,08,05,07,20,18.90
2012,08,05,07,21,19.10
2012,08,05,07,22,19.20
2012,08,05,07,24,19.20
2012,08,05,07,25,19.30
2012,08,05,07,26,19.40
2012,08,05,07,27,19.40
2012,08,05,07,28,19.50
2012,08,05,07,30,19.60
2012,08,05,07,31,19.70
2012,08,05,07,32,19.70
2012,08,05,07,33,19.80
2012,08,05,07,34,19.90
2012,08,05,07,35,19.90
2012,08,05,07,36,20.00
2012,08,05,07,37,20.10
2012,08,05,07,38,20.20
2012,08,05,07,39,20.20
2012,08,05,07,40,20.30
2012,08,05,07,41,20.30
2012,08,05,07,42,20.40
2012,08,05,07,43,20.50
2012,08,05,07,44,20.60
2012,08,05,07,46,20.70
2012,08,05,07,47,20.80
2012,08,05,07,48,20.80
2012,08,05,07,49,20.90
2012,08,05,07,50,20.90
2012,08,05,07,51,21.00
2012,08,05,07,52,21.10
2012,08,05,07,53,21.10
2012,08,05,07,54,21.20
2012,08,05,07,55,21.20
2012,08,05,07,56,21.30
2012,08,05,07,57,21.30
2012,08,05,07,58,21.40
2012,08,05,07,59,21.40
2012,08,05,08,00,21.60
2012,08,05,08,01,21.70
2012,08,05,08,02,21.80
2012,08,05,08,03,21.80
2012,08,05,08,04,21.80
2012,08,05,08,05,21.80
2012,08,05,08,06,21.90
2012,08,05,08,07,21.90
2012,08,05,08,08,22.10
2012,08,05,08,09,22.20
2012,08,05,08,11,22.20
2012,08,05,08,12,22.30
2012,08,05,08,13,22.30
2012,08,05,08,14,22.40
2012,08,05,08,15,22.40
2012,08,05,08,16,22.60
2012,08,05,08,17,22.60
2012,08,05,08,18,22.70
2012,08,05,08,19,22.70
2012,08,05,08,21,22.80
2012,08,05,08,22,22.80
2012,08,05,08,23,22.90
2012,08,05,08,25,22.90
2012,08,05,08,26,22.90
2012,08,05,08,27,22.90
2012,08,05,08,28,22.90
2012,08,05,08,29,23.00
2012,08,05,08,31,23.00
2012,08,05,08,32,23.10
2012,08,05,08,33,23.20
2012,08,05,08,34,23.20
2012,08,05,08,35,23.20
2012,08,05,08,36,23.30
2012,08,05,08,37,23.30
2012,08,05,08,38,23.40
2012,08,05,08,40,23.40
2012,08,05,08,41,23.40
2012,08,05,08,42,23.60
2012,08,05,08,44,23.60
2012,08,05,08,45,23.60
2012,08,05,08,46,23.60
2012,08,05,08,47,23.70
2012,08,05,08,49,23.70
2012,08,05,08,50,23.80
2012,08,05,08,51,23.80
2012,08,05,08,52,23.90
2012,08,05,08,54,23.90
2012,08,05,08,55,23.90
2012,08,05,08,56,24.10
2012,08,05,08,57,24.10
2012,08,05,08,59,24.10
2012,08,05,09,00,24.20
2012,08,05,09,01,24.20
2012,08,05,09,02,24.20
2012,08,05,09,04,24.20
2012,08,05,09,05,24.20
2012,08,05,09,06,24.20
2012,08,05,09,07,24.20
2012,08,05,09,09,24.20
2012,08,05,09,10,24.20
2012,08,05,09,11,24.30
2012,08,05,09,12,24.30
2012,08,05,09,14,24.30
2012,08,05,09,15,24.30
2012,08,05,09,16,24.30
2012,08,05,09,17,24.30
2012,08,05,09,18,24.30
2012,08,05,09,20,24.30
2012,08,05,09,21,24.30
2012,08,05,09,22,24.30
2012,08,05,09,23,24.30
2012,08,05,09,25,24.30
2012,08,05,09,26,24.40
2012,08,05,09,27,24.40
2012,08,05,09,28,24.40
2012,08,05,09,30,24.40
2012,08,05,09,31,24.50
2012,08,05,09,32,24.50
2012,08,05,09,33,24.60
2012,08,05,09,34,24.60
2012,08,05,09,35,24.60
2012,08,05,09,36,24.60
2012,08,05,09,37,24.60
2012,08,05,09,38,24.60
2012,08,05,09,39,24.60
2012,08,05,09,40,24.70
2012,08,05,09,41,24.70
2012,08,05,09,42,24.70
2012,08,05,09,43,24.80
2012,08,05,09,45,24.80
2012,08,05,09,46,24.90
2012,08,05,09,47,24.90
2012,08,05,09,48,25.00
2012,08,05,09,49,25.10
2012,08,05,09,50,25.10
2012,08,05,09,51,25.10
2012,08,05,09,52,25.10
2012,08,05,09,53,25.10
2012,08,05,09,54,25.10
2012,08,05,09,56,24.90
2012,08,05,09,57,24.90
2012,08,05,09,58,24.80
2012,08,05,09,59,24.80
2012,08,05,10,00,24.70
2012,08,05,10,01,24.70
2012,08,05,10,02,24.70
2012,08,05,10,03,24.70
2012,08,05,10,04,24.70
2012,08,05,10,05,24.70
2012,08,05,10,06,24.70
2012,08,05,10,07,24.70
2012,08,05,10,08,24.60
2012,08,05,10,09,24.60
2012,08,05,10,11,24.60
2012,08,05,10,12,24.60
2012,08,05,10,13,24.60
2012,08,05,10,14,24.60
2012,08,05,10,16,24.70
2012,08,05,10,17,24.70
2012,08,05,10,18,24.80
2012,08,05,10,19,24.80
2012,08,05,10,20,24.80
2012,08,05,10,21,24.80
2012,08,05,10,22,24.90
2012,08,05,10,24,24.90
2012,08,05,10,25,24.90
2012,08,05,10,26,24.90
2012,08,05,10,27,24.90
2012,08,05,10,28,24.90
2012,08,05,10,29,24.90
2012,08,05,10,30,24.90
2012,08,05,10,31,24.90
2012,08,05,10,33,24.90
2012,08,05,10,34,24.90
2012,08,05,10,35,25.00
2012,08,05,10,36,25.10
2012,08,05,10,37,25.20
2012,08,05,10,38,25.20
2012,08,05,10,39,25.30
2012,08,05,10,40,25.30
2012,08,05,10,41,25.40
2012,08,05,10,42,25.40
2012,08,05,10,43,25.50
2012,08,05,10,44,25.60
2012,08,05,10,45,25.70
2012,08,05,10,47,25.80
2012,08,05,10,48,25.80
2012,08,05,10,49,25.80
2012,08,05,10,50,25.90
2012,08,05,10,52,25.90
2012,08,05,10,53,25.90
2012,08,05,10,54,25.80
2012,08,05,10,55,25.90
2012,08,05,10,57,25.90
2012,08,05,10,58,26.10
2012,08,05,10,59,26.20
2012,08,05,11,00,26.20
2012,08,05,11,02,26.30
2012,08,05,11,03,26.40
2012,08,05,11,04,26.40
2012,08,05,11,05,26.30
2012,08,05,11,06,26.30
2012,08,05,11,07,26.30
2012,08,05,11,08,26.30
2012,08,05,11,09,26.30
2012,08,05,11,10,26.30
2012,08,05,11,11,26.30
2012,08,05,11,12,26.30
2012,08,05,11,13,26.30
2012,08,05,11,14,26.40
2012,08,05,11,16,26.40
2012,08,05,11,17,26.40
2012,08,05,11,18,26.40
2012,08,05,11,19,26.50
2012,08,05,11,20,26.50
2012,08,05,11,21,26.60
2012,08,05,11,22,26.60
2012,08,05,11,23,26.60
2012,08,05,11,24,26.60
2012,08,05,11,26,26.50
2012,08,05,11,27,26.30
2012,08,05,11,28,26.30
2012,08,05,11,29,26.30
2012,08,05,11,30,26.30
2012,08,05,11,32,26.30
2012,08,05,11,33,26.30
2012,08,05,11,34,26.30
2012,08,05,11,35,26.30
2012,08,05,11,36,26.30
2012,08,05,11,37,26.30
2012,08,05,11,38,26.30
2012,08,05,11,39,26.40
2012,08,05,11,40,26.40
2012,08,05,11,41,26.50
2012,08,05,11,42,26.60
2012,08,05,11,43,26.60
2012,08,05,11,44,26.60
2012,08,05,11,45,26.60
2012,08,05,11,46,26.60
2012,08,05,11,47,26.60
2012,08,05,11,48,26.60
2012,08,05,11,49,26.60
2012,08,05,11,50,26.60
2012,08,05,11,51,26.60
2012,08,05,11,52,26.60
2012,08,05,11,53,26.60
2012,08,05,11,54,26.70
2012,08,05,11,55,26.80
2012,08,05,11,57,26.80
2012,08,05,11,58,26.80
2012,08,05,11,59,26.80
2012,08,05,12,00,26.80
2012,08,05,12,01,26.80
2012,08,05,12,02,26.90
2012,08,05,12,03,26.90
2012,08,05,12,04,26.80
2012,08,05,12,05,26.80
2012,08,05,12,07,26.80
2012,08,05,12,08,26.80
2012,08,05,12,09,26.80
2012,08,05,12,10,26.80
2012,08,05,12,11,26.80
2012,08,05,12,12,26.80
2012,08,05,12,13,26.80
2012,08,05,12,14,26.80
2012,08,05,12,15,26.80
2012,08,05,12,17,26.80
2012,08,05,12,18,26.80
2012,08,05,12,19,26.90
2012,08,05,12,20,26.90
2012,08,05,12,21,26.90
2012,08,05,12,22,26.90
2012,08,05,12,23,27.10
2012,08,05,12,24,27.10
2012,08,05,12,25,27.20
2012,08,05,12,27,27.20
2012,08,05,12,28,27.20
2012,08,05,12,29,27.20
2012,08,05,12,30,27.20
2012,08,05,12,32,27.20
2012,08,05,12,33,27.10
2012,08,05,12,34,27.10
2012,08,05,12,35,27.10
2012,08,05,12,37,27.20
2012,08,05,12,38,27.20
2012,08,05,12,39,27.30
2012,08,05,12,40,27.30
2012,08,05,12,41,27.30
2012,08,05,12,43,27.40
2012,08,05,12,44,27.50
2012,08,05,12,45,27.60
2012,08,05,12,47,27.70
2012,08,05,12,48,27.70
2012,08,05,12,49,27.60
2012,08,05,12,50,27.60
2012,08,05,12,51,27.60
2012,08,05,12,53,27.60
2012,08,05,12,54,27.50
2012,08,05,12,55,27.50
2012,08,05,12,56,27.60
2012,08,05,12,58,27.60
2012,08,05,12,59,27.70
2012,08,05,13,00,27.70
2012,08,05,13,02,27.80
2012,08,05,13,03,27.80
2012,08,05,13,04,27.80
2012,08,05,13,05,27.90
2012,08,05,13,07,27.90
2012,08,05,13,08,28.00
2012,08,05,13,09,28.00
2012,08,05,13,10,28.00
2012,08,05,13,12,28.10
2012,08,05,13,13,28.10
2012,08,05,13,14,28.10
2012,08,05,13,15,28.10
2012,08,05,13,16,28.20
2012,08,05,13,17,28.20
2012,08,05,13,18,28.20
2012,08,05,13,19,28.20
2012,08,05,13,20,28.20
2012,08,05,13,21,28.20
2012,08,05,13,22,28.20
2012,08,05,13,23,28.30
2012,08,05,13,24,28.30
2012,08,05,13,26,28.40
2012,08,05,13,27,28.60
2012,08,05,13,28,28.60
2012,08,05,13,29,28.60
2012,08,05,13,31,28.60
2012,08,05,13,32,28.60
2012,08,05,13,33,28.40
2012,08,05,13,34,28.40
2012,08,05,13,36,28.50
2012,08,05,13,37,28.60
2012,08,05,13,38,28.70
2012,08,05,13,39,28.80
2012,08,05,13,40,28.90
2012,08,05,13,41,28.90
2012,08,05,13,42,28.90
2012,08,05,13,43,28.90
2012,08,05,13,44,29.00
2012,08,05,13,46,29.10
2012,08,05,13,47,29.30
2012,08,05,13,48,29.40
2012,08,05,13,49,29.50
2012,08,05,13,51,29.60
2012,08,05,13,52,29.70
2012,08,05,13,53,29.70
2012,08,05,13,54,29.70
2012,08,05,13,55,29.70
2012,08,05,13,56,29.70
2012,08,05,13,57,29.80
2012,08,05,13,58,29.90
2012,08,05,13,59,29.90
2012,08,05,14,00,29.90
2012,08,05,14,01,29.90
2012,08,05,14,02,29.80
2012,08,05,14,03,29.80
2012,08,05,14,04,29.70
2012,08,05,14,05,29.60
2012,08,05,14,06,29.60
2012,08,05,14,07,29.60
2012,08,05,14,08,29.60
2012,08,05,14,09,29.60
2012,08,05,14,10,29.60
2012,08,05,14,11,29.60
2012,08,05,14,12,29.60
2012,08,05,14,13,29.60
2012,08,05,14,14,29.70
2012,08,05,14,15,29.70
2012,08,05,14,16,29.70
2012,08,05,14,17,29.60
2012,08,05,14,18,29.50
2012,08,05,14,19,29.30
2012,08,05,14,20,29.20
2012,08,05,14,22,29.10
2012,08,05,14,23,29.10
2012,08,05,14,24,29.00
2012,08,05,14,25,28.90
2012,08,05,14,27,28.80
2012,08,05,14,28,28.70
2012,08,05,14,29,28.70
2012,08,05,14,30,28.70
2012,08,05,14,31,28.70
2012,08,05,14,32,28.70
2012,08,05,14,33,28.70
2012,08,05,14,34,28.80
2012,08,05,14,35,28.90
2012,08,05,14,37,29.10
2012,08,05,14,38,29.30
2012,08,05,14,39,29.40
2012,08,05,14,40,29.40
2012,08,05,14,42,29.40
2012,08,05,14,43,29.40
2012,08,05,14,44,29.40
2012,08,05,14,45,29.30
2012,08,05,14,47,29.30
2012,08,05,14,48,29.20
2012,08,05,14,49,29.10
2012,08,05,14,50,29.10
2012,08,05,14,51,29.10
2012,08,05,14,52,29.10
2012,08,05,14,53,29.20
2012,08,05,14,54,29.20
2012,08,05,14,56,29.30
2012,08,05,14,57,29.40
2012,08,05,14,58,29.50
2012,08,05,14,59,29.60
2012,08,05,15,01,29.60
2012,08,05,15,02,29.70
2012,08,05,15,03,29.70
2012,08,05,15,04,29.60
2012,08,05,15,06,29.60
2012,08,05,15,07,29.50
2012,08,05,15,08,29.40
2012,08,05,15,09,29.30
2012,08,05,15,10,29.30
2012,08,05,15,11,29.30
2012,08,05,15,12,29.30
2012,08,05,15,13,29.20
2012,08,05,15,14,29.20
2012,08,05,15,15,29.20
2012,08,05,15,17,29.20
2012,08,05,15,18,29.10
2012,08,05,15,19,29.10
2012,08,05,15,20,29.10
2012,08,05,15,21,29.20
2012,08,05,15,22,29.20
2012,08,05,15,23,29.30
2012,08,05,15,24,29.30
2012,08,05,15,25,29.30
2012,08,05,15,26,29.30
2012,08,05,15,28,29.30
2012,08,05,15,29,29.30
2012,08,05,15,30,29.40
2012,08,05,15,31,29.40
2012,08,05,15,32,29.40
2012,08,05,15,33,29.50
2012,08,05,15,34,29.60
2012,08,05,15,35,29.70
2012,08,05,15,37,29.70
2012,08,05,15,38,29.60
2012,08,05,15,39,29.40
2012,08,05,15,40,29.40
2012,08,05,15,42,29.40
2012,08,05,15,43,29.40
2012,08,05,15,44,29.50
2012,08,05,15,45,29.60
2012,08,05,15,47,29.60
2012,08,05,15,48,29.70
2012,08,05,15,49,29.70
2012,08,05,15,50,29.80
2012,08,05,15,52,29.80
2012,08,05,15,53,29.70
2012,08,05,15,54,29.70
2012,08,05,15,55,29.60
2012,08,05,15,57,29.60
2012,08,05,15,58,29.60
2012,08,05,15,59,29.70
2012,08,05,16,00,29.80
2012,08,05,16,02,29.80
2012,08,05,16,03,29.90
2012,08,05,16,04,30.10
2012,08,05,16,05,30.10
2012,08,05,16,06,30.10
2012,08,05,16,07,30.20
2012,08,05,16,08,30.20
2012,08,05,16,09,30.10
2012,08,05,16,10,30.10
2012,08,05,16,11,29.90
2012,08,05,16,12,29.90
2012,08,05,16,13,29.80
2012,08,05,16,15,29.80
2012,08,05,16,16,29.70
2012,08,05,16,17,29.70
2012,08,05,16,18,29.70
2012,08,05,16,19,29.70
2012,08,05,16,20,29.80
2012,08,05,16,21,29.80
2012,08,05,16,22,29.80
2012,08,05,16,23,29.80
2012,08,05,16,24,29.90
2012,08,05,16,25,29.90
2012,08,05,16,26,29.90
2012,08,05,16,27,29.90
2012,08,05,16,29,29.90
2012,08,05,16,30,29.90
2012,08,05,16,31,29.90
2012,08,05,16,32,29.90
2012,08,05,16,33,29.90
2012,08,05,16,35,29.90
2012,08,05,16,36,30.00
2012,08,05,16,37,30.00
2012,08,05,16,38,30.10
2012,08,05,16,40,30.00
2012,08,05,16,41,30.10
2012,08,05,16,42,30.10
2012,08,05,16,43,30.20
2012,08,05,16,45,30.30
2012,08,05,16,46,30.30
2012,08,05,16,47,30.40
2012,08,05,16,48,30.40
2012,08,05,16,50,30.40
2012,08,05,16,51,30.40
2012,08,05,16,52,30.40
2012,08,05,16,53,30.50
2012,08,05,16,55,30.60
2012,08,05,16,56,30.60
2012,08,05,16,57,30.60
2012,08,05,16,58,30.60
2012,08,05,17,00,30.60
2012,08,05,17,01,30.60
2012,08,05,17,02,30.70
2012,08,05,17,03,30.80
2012,08,05,17,05,30.80
2012,08,05,17,06,30.80
2012,08,05,17,07,30.80
2012,08,05,17,08,30.80
2012,08,05,17,09,30.80
2012,08,05,17,11,30.80
2012,08,05,17,12,30.90
2012,08,05,17,13,30.80
2012,08,05,17,14,30.80
2012,08,05,17,16,30.70
2012,08,05,17,17,30.60
2012,08,05,17,18,30.60
2012,08,05,17,20,30.50
2012,08,05,17,21,30.50
2012,08,05,17,22,30.50
2012,08,05,17,23,30.40
2012,08,05,17,24,30.40
2012,08,05,17,26,30.40
2012,08,05,17,27,30.40
2012,08,05,17,28,30.40
2012,08,05,17,29,30.30
2012,08,05,17,31,30.40
2012,08,05,17,32,30.40
2012,08,05,17,33,30.30
2012,08,05,17,34,30.40
2012,08,05,17,35,30.40
2012,08,05,17,36,30.40
2012,08,05,17,37,30.40
2012,08,05,17,38,30.50
2012,08,05,17,39,30.50
2012,08,05,17,40,30.60
2012,08,05,17,41,30.50
2012,08,05,17,42,30.40
2012,08,05,17,43,30.30
2012,08,05,17,44,30.20
2012,08,05,17,45,30.20
2012,08,05,17,46,30.10
2012,08,05,17,47,30.10
2012,08,05,17,48,30.10
2012,08,05,17,49,30.00
2012,08,05,17,50,30.00
2012,08,05,17,51,29.90
2012,08,05,17,52,29.90
2012,08,05,17,53,29.90
2012,08,05,17,54,29.90
2012,08,05,17,55,29.90
2012,08,05,17,56,30.00
2012,08,05,17,57,30.10
2012,08,05,17,58,30.10
2012,08,05,17,59,30.00
2012,08,05,18,01,30.00
2012,08,05,18,02,30.00
2012,08,05,18,03,30.00
2012,08,05,18,04,30.10
2012,08,05,18,05,30.10
2012,08,05,18,06,30.10
2012,08,05,18,07,30.10
2012,08,05,18,08,30.10
2012,08,05,18,09,30.10
2012,08,05,18,10,30.10
2012,08,05,18,11,30.10
2012,08,05,18,12,30.00
2012,08,05,18,13,29.90
2012,08,05,18,14,29.90
2012,08,05,18,15,29.90
2012,08,05,18,16,29.90
2012,08,05,18,17,29.90
2012,08,05,18,18,29.90
2012,08,05,18,19,29.90
2012,08,05,18,21,29.90
2012,08,05,18,22,29.90
2012,08,05,18,23,29.90
2012,08,05,18,24,29.80
2012,08,05,18,26,29.80
2012,08,05,18,27,29.70
2012,08,05,18,28,29.70
2012,08,05,18,29,29.70
2012,08,05,18,31,29.60
2012,08,05,18,32,29.60
2012,08,05,18,33,29.60
2012,08,05,18,34,29.60
2012,08,05,18,35,29.70
2012,08,05,18,36,29.70
2012,08,05,18,37,29.70
2012,08,05,18,38,29.70
2012,08,05,18,39,29.70
2012,08,05,18,40,29.70
2012,08,05,18,41,29.60
2012,08,05,18,42,29.60
2012,08,05,18,43,29.50
2012,08,05,18,45,29.50
2012,08,05,18,46,29.50
2012,08,05,18,47,29.50
2012,08,05,18,48,29.50
2012,08,05,18,49,29.40
2012,08,05,18,50,29.40
2012,08,05,18,51,29.50
2012,08,05,18,52,29.60
2012,08,05,18,53,29.60
2012,08,05,18,54,29.60
2012,08,05,18,55,29.70
2012,08,05,18,56,29.70
2012,08,05,18,57,29.70
2012,08,05,18,59,29.70
2012,08,05,19,00,29.80
2012,08,05,19,01,29.70
2012,08,05,19,02,29.70
2012,08,05,19,03,29.70
2012,08,05,19,04,29.70
2012,08,05,19,05,29.70
2012,08,05,19,06,29.70
2012,08,05,19,07,29.70
2012,08,05,19,09,29.70
2012,08,05,19,10,29.70
2012,08,05,19,11,29.70
2012,08,05,19,12,29.60
2012,08,05,19,13,29.60
2012,08,05,19,14,29.60
2012,08,05,19,15,29.50
2012,08,05,19,16,29.40
2012,08,05,19,17,29.30
2012,08,05,19,18,29.20
2012,08,05,19,19,29.10
2012,08,05,19,20,29.00
2012,08,05,19,21,28.80
2012,08,05,19,22,28.70
2012,08,05,19,23,28.70
2012,08,05,19,24,28.60
2012,08,05,19,25,28.40
2012,08,05,19,26,28.30
2012,08,05,19,28,28.30
2012,08,05,19,29,28.20
2012,08,05,19,30,28.10
2012,08,05,19,32,27.90
2012,08,05,19,33,27.80
2012,08,05,19,34,27.70
2012,08,05,19,35,27.70
2012,08,05,19,36,27.60
2012,08,05,19,37,27.60
2012,08,05,19,38,27.40